Regional Weather Roundup
Issued by NWS Albany, NY

Home | Current Version | Previous Version | Graphics & Text | Print | Product List | Glossary Off
Versions: 1 2 3 4 5 6 7 8 9 10 11 12 13 14 15 16 17 18 19 20 21 22 23 24 25 26 27 28 29 30 31 32 33 34 35 36 37 38 39 40 41 42 43 44 45 46 47 48 49 50

000
ASUS41 KALY 092110
RWRALY

NEW YORK STATE HOURLY WEATHER ROUNDUP
NATIONAL WEATHER SERVICE ALBANY NY
400 PM EST FRI DEC 09 2016

NOTE: "FAIR" INDICATES FEW OR NO CLOUDS BELOW 12,000 FEET WITH NO
SIGNIFICANT WEATHER AND/OR NO OBSTRUCTIONS TO VISIBILITY.

NYZ032-033-038>043-046>054-057>066-NYZ062>081-082-084-092200-
EAST


CITY           SKY/WX    TMP DP  RH WIND       PRES   REMARKS
ALBANY         MOCLDY    28   9  44 NW10      30.16R WCI  19
GLENS FALLS    CLOUDY    29  10  45 NW9       30.12R WCI  20
POUGHKEEPSIE   CLOUDY    33  11  39 NW17G25   30.13R WCI  22
NEWBURGH       PTCLDY    34  14  44 W23G37    30.14R WCI  22
MONTGOMERY     PTCLDY    33  13  43 NW15G22   30.13R WCI  23
WHITE PLAINS   PTCLDY    34  13  41 W30G40    30.11R WCI  20
ISLIP          MOCLDY    37  14  38 NW18G30   30.11R WCI  27
NEW YORK CITY  MOCLDY    40  18  41 NW26G32   30.15R WCI  29
CENTRAL PARK   CLOUDY    37  13  37 MISG      30.17R
$$

NYZ005>009-017-018-044>046-055-056-092200-
CENTRAL


CITY           SKY/WX    TMP DP  RH WIND       PRES   REMARKS
FULTON         LGT SNOW  25  21  85 NW13      30.23R VSB 3/4 WCI  14
SYRACUSE       LGT SNOW  24  21  88 W13       30.22R VSB 3/4 WCI  12
ROME           CLOUDY    25  18  74 NW10G20   30.20R WCI  15
ELMIRA         CLOUDY    29  14  53 NW9       30.22R WCI  20
BINGHAMTON     FLURRIES  22  12  65 NW8G23    30.15R WCI  12
MONTICELLO     CLEAR     25  10  54 NW17G31   30.11R WCI  11
$$

NYZ026>034-041>043-087-092200-
NORTH


CITY           SKY/WX    TMP DP  RH WIND       PRES   REMARKS
WATERTOWN      CLOUDY    26  12  55 NW13      30.21R WCI  15
FORT DRUM      NOT AVBL
OGDENSBURG     FAIR      26  12  56 NW13G18   30.19R WCI  15
MASSENA        CLOUDY    24  12  60 W16G23    30.18R WCI  11
SARANAC LAKE   LGT SNOW  16   9  74 VRB7G16   30.03R WCI   6
PLATTSBURGH    CLOUDY    25  12  58 NW9       30.11R WCI  15
$$

NYZ001>004-010>016-019>021-085-092200-
WEST


CITY           SKY/WX    TMP DP  RH WIND       PRES   REMARKS
NIAGARA FALLS  MOCLDY    30  15  53 W17G26    30.27R WCI  18
BUFFALO        MOCLDY    29  14  53 W10       30.26R WCI  20
DUNKIRK        CLOUDY    30  19  63 NW18G28   30.28R WCI  18
JAMESTOWN      CLOUDY    25  19  80 NW13      30.22R WCI  13
WELLSVILLE     MOCLDY    25  14  63 NW18G25   30.18R WCI  11
ROCHESTER      FLURRIES  28  14  55 W12       30.25R WCI  18
PENN YAN       CLOUDY    27  13  55 W10G24    30.22R WCI  17
$$

             KEY
       WCI = WIND CHILL INDEX
       VSB = VISIBILITY
       HX  = HEAT INDEX
$$



USA.gov is the U.S. government's official web portal to all federal, state and local government web resources and services.